Location: Isola Pescaroli
(45.0500°N, 10.1667°E)
Time: 21:11:06
(UTC+00:00)

Daily predictions for brighter satellites

Satellite Brightness Start Highest point End
(mag) Time Altitude Azimuth Time Altitude Azimuth Time Altitude Azimuth
Sich 1 3.2 17:29:13 10° S 17:33:36 84° W 17:38:03 10° N
Cosmos 1461 3.4 17:30:52 10° SW 17:35:35 77° NW 17:40:22 10° NNE
Nadezhda 3 Rocket 4.4 17:30:04 10° N 17:36:09 44° ENE 17:42:10 10° SE
ATLAS 5 CENTAUR R/B 4.3 17:18:42 10° SW 17:36:14 57° NW 17:40:43 10° NNE
Meteor 1-25 Rocket 4.3 17:31:50 10° S 17:37:30 61° E 17:43:07 10° NNE
Cosmos 2074 Rocket 4.0 17:35:21 10° S 17:41:35 73° E 17:47:49 10° NNE
Cosmos 2154 Rocket 4.2 17:35:59 10° SSE 17:41:53 47° E 17:47:47 10° NNE
YAOGAN 1 2.7 17:39:01 10° SSE 17:43:12 53° ENE 17:47:26 10° N
Abrixas rocket 2.2 17:40:56 10° W 17:43:21 47° NNW 17:45:47 10° ENE
Helios 1A Rocket 3.7 17:39:54 10° SE 17:43:29 31° ENE 17:47:04 10° N
APEX 2.9 17:44:10 10° NNW 17:46:56 61° WSW 17:49:37 10° SSE
Cosmos 2219 Rocket 3.8 17:46:08 10° ESE 17:48:16 12° E 17:50:24 10° ENE
COSMO-SKYMED 1 3.1 17:46:01 10° N 17:50:20 65° WNW 17:54:38 10° SSW
GP-B 4.1 17:47:00 10° SE 17:50:39 25° ENE 17:54:18 10° NNE
Cosmos 1992 Rocket 4.1 17:49:08 10° S 17:54:12 53° ESE 17:59:18 10° NNE
SL-16 R/B 2.2 17:49:06 10° SSW 17:54:47 84° ESE 18:00:29 10° NNE
Cosmos 2263 Rocket 3.2 17:50:16 10° NW 17:55:38 51° WSW 18:01:00 10° S
ARGOS 3.3 17:51:01 10° SSE 17:56:18 57° ENE 18:01:38 10° N
Meteor 1-18 Rocket 4.4 17:50:32 10° N 17:56:26 62° ENE 18:02:15 10° SSE
Cosmos 968 Rocket 3.5 17:51:18 10° NNW 17:56:37 88° ENE 18:01:52 10° SSE
USA 234 3.9 17:53:53 10° ENE 17:59:50 36° SE 18:05:43 10° SSW
Cosmos 1486 Rocket 4.0 17:55:03 10° NNW 18:00:22 83° ENE 18:05:41 10° SSE
Cosmos 1515 3.6 17:56:52 10° N 18:00:42 70° E 18:04:29 10° SSE
Okean 1 3.3 17:56:46 10° N 18:00:47 68° E 18:04:48 10° SSE
Cosmos 1633 Rocket 3.2 17:57:42 10° S 18:02:07 83° W 18:06:35 10° N
Cosmos 2184 Rocket 4.1 17:56:01 10° S 18:02:11 83° W 18:08:26 10° N
OBJECT-B 3.0 18:03:22 11° NE 18:03:22 11° NE 18:03:48 10° NE
SeaSat 1 2.8 17:58:26 10° NE 18:03:10 44° ESE 18:07:52 10° S
Okean 1-7 4.0 18:00:29 10° NNE 18:04:15 27° ENE 18:07:56 10° SE
Cosmos 1707 Rocket 4.5 17:59:58 10° NNW 18:04:15 52° W 18:08:28 10° S
H-2A R/B 2.3 18:02:11 10° SSE 18:07:38 82° WSW 18:13:07 10° NNW
CZ-4 R/B 1.6 18:03:49 10° S 18:07:39 70° WSW 18:11:34 10° NNW
CZ-2C R/B 2.9 18:03:15 10° NNE 18:08:34 48° E 18:13:43 10° S
SAR-Lupe-4 3.5 18:07:32 10° NNE 18:11:06 65° ESE 18:14:39 10° S
Gbstr 26 Del rocket 4.2 18:09:49 10° WNW 18:14:00 40° N 18:18:27 13° ENE
Cosmos 2237 4.2 18:08:26 10° SSW 18:14:04 65° ESE 18:19:47 10° NNE
SL-4 R/B 2.8 18:13:36 10° NW 18:16:48 30° N 18:18:38 18° ENE
USA 186 3.4 18:25:08 14° NNE 18:25:08 14° NNE 18:25:40 10° NNE
ATLAS CENTAUR R/B 0.9 18:20:18 10° SSW 18:23:52 64° ESE 18:26:57 14° NE
FALCON 9 DEB 3.4 18:21:27 10° NW 18:24:48 52° NNE 18:26:13 29° E
Cosmos 1354 Rocket 3.9 18:21:49 10° NNW 18:27:04 71° ENE 18:32:17 10° SSE
Okean-O 3.4 18:23:08 10° S 18:27:29 56° W 18:31:52 10° NNW
ERS-2 2.4 18:24:43 10° N 18:28:22 70° WNW 18:32:00 10° SSW
Cosmos 44 Rocket 3.9 18:23:20 10° NW 18:28:31 62° WSW 18:33:36 10° SSE
CSL-04 Rocket 3.7 18:23:13 10° SSE 18:28:46 85° ENE 18:34:19 10° NNW
Cosmos 2366 rocket 4.5 18:23:14 10° SSE 18:28:54 37° E 18:34:37 10° NNE
CSL-04 Debris 4.2 18:24:41 10° SSE 18:30:07 87° WSW 18:35:38 10° NNW
SAR-Lupe-1 4.4 18:26:55 10° N 18:30:31 69° WNW 18:34:04 10° SSW
Cosmos 1844 Rocket 2.6 18:25:15 10° NNW 18:30:50 69° ENE 18:36:09 11° SE
Cosmos 2084 Rocket 3.6 18:26:37 10° NW 18:30:59 75° SW 18:34:58 13° SSE
Cosmos 1666 2.9 18:29:49 10° SSE 18:33:19 42° E 18:36:53 10° NNE
HJ-1C 4.2 18:32:13 10° S 18:35:27 52° W 18:38:43 10° NNW
Cosmos 1777 Rocket 4.5 18:30:45 10° N 18:35:42 40° ENE 18:37:59 26° ESE
Cosmos 2341 Rocket 3.9 18:30:59 10° S 18:37:13 67° E 18:43:26 10° NNE
Cosmos 1503 Rocket 4.0 18:32:05 10° NNW 18:37:18 83° WSW 18:42:27 10° SSE
Meteor 1-5 Rocket 4.1 18:32:19 10° S 18:37:35 63° E 18:43:01 10° NNE
Cosmos 2333 4.4 18:32:40 10° S 18:38:01 46° ESE 18:43:27 10° NE
Cosmos 1470 Rocket 4.3 18:36:58 10° SSW 18:41:22 56° WNW 18:45:46 10° N
Cosmos 1844 3.7 18:36:51 10° NNW 18:42:39 71° ENE 18:46:58 18° SE
Okean 3 4.1 18:38:58 10° N 18:42:52 33° ENE 18:42:57 33° ENE
Cosmos 2360 Rocket 2.2 18:38:30 10° SSW 18:44:09 88° WNW 18:49:52 10° NNE
Ariane Rocket 3.4 18:42:04 27° ESE 18:44:14 41° ENE 18:49:00 10° N
Cosmos 2278 Rocket 3.5 18:43:33 10° N 18:47:55 22° NE 18:48:35 22° ENE
Cosmos 1727 Rocket 4.4 18:45:20 10° N 18:51:05 38° ENE 18:52:56 31° ESE
Cosmos 1500 4.1 18:48:29 10° SSW 18:52:06 49° WNW 18:55:44 10° N
Cosmos 2333 Rocket 2.3 18:48:50 10° S 18:54:16 50° ESE 18:59:47 10° NE
Meteor 2-4 Rocket 4.0 18:48:42 10° NNW 18:54:33 74° W 19:00:27 10° S
Cosmos 1703 Rocket 3.5 18:50:19 10° N 18:54:44 85° W 18:59:06 10° S
Cosmos 2218 Rocket 4.0 18:49:31 10° S 18:55:47 61° E 19:02:05 10° NNE
SL-08 RB Rocket 4.4 18:51:40 10° S 18:56:05 55° W 19:00:35 10° NNW
Cosmos 1933 Rocket 4.4 18:58:04 10° SSW 19:02:18 50° WNW 19:06:35 10° N
Resurs 01 Rocket 3.1 19:12:41 23° NNE 19:12:41 23° NNE 19:14:49 10° N
Cosmos 864 Rocket 4.3 19:06:27 10° S 19:12:34 75° E 19:18:47 10° NNE
Cosmos 2322 Rocket 3.9 19:09:28 10° WSW 19:14:29 33° NW 19:19:32 10° N
Lacrosse 4 Rocket 2.5 19:11:54 10° SSW 19:14:29 34° S 19:14:29 34° S
Cosmos 1959 Rocket 4.3 19:11:55 10° S 19:18:00 85° E 19:24:09 10° N
SME Rocket 4.0 19:10:35 10° NNE 19:18:47 84° ESE 19:24:01 10° SSW
Cosmos 192 4.2 19:16:35 10° SSW 19:21:30 87° WNW 19:26:26 10° NNE
SJ-6B 3.2 19:22:30 50° SSW 19:23:20 64° W 19:27:22 10° NNW
COSMOS 2428 2.6 19:18:43 10° S 19:24:19 64° ESE 19:24:51 60° E
ASTEX 1 3.3 19:23:03 10° N 19:27:58 85° W 19:30:11 33° SSW
MOS 1 4.2 19:25:33 35° SSE 19:28:05 85° WSW 19:33:48 10° NNW
Meteor 1-23 Rocket 4.1 19:24:49 10° N 19:30:24 68° ENE 19:30:27 68° E
Cosmos 2219 Rocket 2.0 19:25:42 10° SSW 19:31:17 85° ESE 19:36:56 10° NNE
Meteor 1-11 Rocket 3.7 19:25:34 10° SSW 19:31:18 81° W 19:36:57 10° N
OBJECT-B 3.1 19:36:26 22° NW 19:36:26 22° NW 19:37:49 10° NNW
Resurs 1-3 4.1 19:38:47 53° NNW 19:38:47 53° NNW 19:42:12 10° NNW
SeaSat 1 4.2 19:36:14 10° N 19:40:31 30° NW 19:44:46 10° WSW
SJ 16-02 2.8 19:37:17 10° NNW 19:39:35 29° N 19:39:35 29° N
USA 234 3.3 19:39:54 32° NE 19:43:09 75° NW 19:49:41 10° WSW
Cosmos 1066 Rocket 4.4 19:38:33 10° NNW 19:44:16 74° W 19:45:41 52° SSW
Cosmos 2322 4.3 19:45:49 10° SW 19:51:24 55° WNW 19:57:04 10° NNE
BREEZE-M DEB (TANK) 3.6 19:49:06 10° WNW 19:51:10 45° NW 19:51:10 45° NW
SL-4 R/B 4.4 19:53:10 10° WNW 19:54:13 18° WNW 19:54:13 18° WNW
Gbstr 26 Del rocket 4.3 19:56:58 10° WNW 20:00:59 44° N 20:00:59 44° N
ATLAS CENTAUR R/B 3.9 20:00:51 10° WNW 20:03:08 16° NW 20:03:10 16° NW
NOSS 3-3 (A) 4.4 20:11:19 10° NW 20:18:42 80° NNE 20:18:42 80° NNE
NOSS 3-3 (C) 4.4 20:11:25 10° NW 20:18:47 79° NNE 20:18:47 79° NNE
Cosmos 2278 Rocket 3.4 20:26:55 10° NNW 20:30:28 39° NW 20:30:28 39° NW
Cosmos 2333 Rocket 3.9 20:33:51 10° WSW 20:38:48 30° NW 20:43:47 10° N
Resurs 01 Rocket 4.5 20:50:14 15° NW 20:50:14 15° NW 20:51:09 10° NW
Cosmos 1943 Rocket 4.4 20:46:53 10° N 20:48:24 17° N 20:48:24 17° N
